FW3241 Weather Reports


time (UTC)temp
C
wind
direction
speed
KPH
gust
KPH
rain 1hr
cm
rain 24hr
cm
rain mn
cm
humidity
%
barometer
mb
20260506044519 14 247 3.2 14.5 0.00 0.00 0.00 49 1013.7
20260506043019 14 165 4.8 14.5 0.00 0.00 0.00 50 1014.4
20260506041508 14 135 1.6 9.7 0.00 0.00 0.00 51 1014.2
20260506040005 14 154 4.8 14.5 0.00 0.00 0.00 51 1014.1
20260506034505 14 184 3.2 6.4 0.00 0.00 0.00 51 1013.9
20260506033005 14 156 3.2 19.3 0.00 0.00 0.00 51 1014.0
20260506031504 13 196 3.2 8.0 0.00 0.00 0.00 50 1014.1
20260506024503 14 192 4.8 16.1 0.00 0.00 0.00 50 1014.0
20260506023103 13 144 1.6 11.3 0.00 0.00 0.00 48 1014.3
20260506021606 13 195 1.6 8.0 0.00 0.00 0.00 47 1014.2
20260506020059 14 184 0.0 12.9 0.00 0.00 0.00 46 1013.9
20260506014559 14 149 1.6 6.4 0.00 0.00 0.00 45 1013.9
20260506013106 14 229 1.6 20.9 0.00 0.00 0.00 44 1014.0
20260506011606 14 188 0.0 9.7 0.00 0.00 0.00 44 1014.1
20260506010057 14 182 1.6 4.8 0.00 0.00 0.00 44 1014.1
20260506004556 15 196 1.6 14.5 0.00 0.00 0.00 44 1013.9
20260506003056 15 219 1.6 6.4 0.00 0.00 0.00 42 1013.9
20260506001555 15 202 4.8 9.7 0.00 0.00 0.00 42 1013.7
20260506000055 15 200 0.0 6.4 0.00 0.00 0.00 43 1013.9
20260505234606 15 160 1.6 4.8 0.00 0.00 0.00 42 1013.8
20260505233054 16 161 1.6 6.4 0.00 0.00 0.00 40 1013.7
20260505231605 16 154 3.2 12.9 0.00 0.00 0.00 40 1013.9
20260505230054 17 177 3.2 12.9 0.00 0.00 0.00 39 1013.9
20260505224552 16 226 3.2 9.7 0.00 0.00 0.00 38 1013.7
20260505223102 17 169 3.2 14.5 0.00 0.00 0.00 39 1014.1
20260505221557 17 179 3.2 8.0 0.00 0.00 0.00 38 1013.8
20260505220052 17 180 4.8 14.5 0.00 0.00 0.00 36 1013.9
20260505214611 17 173 3.2 20.9 0.00 0.00 0.00 35 1013.8
20260505213051 18 170 3.2 9.7 0.00 0.00 0.00 33 1013.8
20260505211547 18 189 3.2 14.5 0.00 0.00 0.00 31 1013.6
20260505210047 18 188 1.6 4.8 0.00 0.00 0.00 30 1013.8
20260505204546 18 176 1.6 11.3 0.00 0.00 0.00 33 1014.1
20260505203043 17 172 1.6 20.9 0.00 0.00 0.00 33 1014.2
20260505201541 17 164 1.6 16.1 0.00 0.00 0.00 34 1014.3
20260505200052 16 187 3.2 8.0 0.00 0.00 0.00 31 1014.4
20260505194541 17 250 1.6 6.4 0.00 0.00 0.00 33 1014.5
20260505193039 17 190 3.2 11.3 0.00 0.00 0.00 33 1015.0
20260505191544 17 211 1.6 11.3 0.00 0.00 0.00 33 1014.9
20260505190040 18 173 3.2 4.8 0.00 0.00 0.00 31 1015.0
20260505184537 18 191 1.6 14.5 0.00 0.00 0.00 33 1015.2
20260505183050 18 176 1.6 11.3 0.00 0.00 0.00 34 1015.3
20260505181535 18 167 3.2 16.1 0.00 0.00 0.00 32 1015.1
20260505180041 18 165 1.6 3.2 0.00 0.00 0.00 32 1015.1
20260505174539 18 207 1.6 8.0 0.00 0.00 0.00 32 1015.6
20260505173032 18 183 1.6 9.7 0.00 0.00 0.00 34 1015.9
20260505171528 18 195 1.6 14.5 0.00 0.00 0.00 34 1016.2
20260505170028 17 233 3.2 8.0 0.00 0.00 0.00 35 1016.1
20260505164523 17 196 1.6 6.4 0.00 0.00 0.00 35 1016.0
20260505163020 16 207 1.6 9.7 0.00 0.00 0.00 37 1016.1
20260505161519 16 191 1.6 6.4 0.00 0.00 0.00 37 1016.2
20260505153015 15 214 1.6 8.0 0.00 0.00 0.00 37 1016.3
20260505151512 15 215 0.0 6.4 0.00 0.00 0.00 38 1016.7
20260505140113 13 195 0.0 4.8 0.00 0.00 0.00 43 1016.5
20260505124551 11 230 4.8 12.9 0.00 0.00 0.00 49 1016.3
20260505123053 11 225 0.0 8.0 0.00 0.00 0.00 50 1016.1
20260505121549 10 181 1.6 4.8 0.00 0.00 0.00 51 1016.1
20260505120052 10 216 0.0 6.4 0.00 0.00 0.00 50 1016.0
20260505114557 10 244 4.8 11.3 0.00 0.00 0.00 49 1015.8
20260505113057 10 234 0.0 3.2 0.00 0.00 0.00 50 1015.6
20260505111546 10 236 0.0 8.0 0.00 0.00 0.00 50 1015.6
20260505101551 10 195 0.0 4.8 0.00 0.00 0.00 49 1015.4
20260505100043 10 200 0.0 4.8 0.00 0.00 0.00 49 1015.6
20260505094542 10 208 0.0 6.4 0.00 0.00 0.00 49 1015.4
20260505093042 11 188 0.0 4.8 0.00 0.00 0.00 49 1015.3
20260505091542 11 185 1.6 4.8 0.00 0.00 0.00 48 1015.3
20260505090040 11 197 1.6 4.8 0.00 0.00 0.00 48 1015.5
20260505084537 11 182 3.2 4.8 0.00 0.00 0.00 48 1015.4
20260505083035 11 188 3.2 6.4 0.00 0.00 0.00 48 1015.4
20260505081535 11 186 4.8 12.9 0.00 0.00 0.00 48 1015.4
20260505080033 11 180 1.6 4.8 0.00 0.00 0.00 49 1015.4
20260505074532 11 169 1.6 4.8 0.00 0.00 0.00 48 1015.3
20260505073031 11 194 1.6 4.8 0.00 0.00 0.00 48 1015.2
20260505071533 11 188 3.2 6.4 0.00 0.00 0.00 49 1015.0
20260505070029 11 182 3.2 4.8 0.00 0.00 0.00 48 1015.2
20260505064526 11 169 3.2 8.0 0.00 0.00 0.00 49 1015.3
20260505063025 11 190 1.6 6.4 0.00 0.00 0.00 49 1015.4
20260505061523 11 185 3.2 6.4 0.00 0.00 0.00 48 1015.4
20260505060121 11 201 3.2 6.4 0.00 0.00 0.00 48 1015.6
20260505054520 11 189 1.6 4.8 0.00 0.00 0.00 48 1015.8
20260505053018 11 178 1.6 4.8 0.00 0.00 0.00 48 1016.1